Regional Weather Roundup
Issued by NWS

Home | Current Version | Previous Version | Graphics & Text | Print | Product List | Glossary On
Versions: 1 2 3 4 5 6 7 8 9 10 11 12 13 14 15 16 17 18 19 20 21 22 23 24 25 26 27 28 29 30 31 32 33 34 35 36 37 38 39 40 41 42 43 44 45 46 47 48 49 50
112
ASUS45 KBOU 221407
RWRCO

WEATHER ROUNDUP FOR COLORADO
NATIONAL WEATHER SERVICE DENVER/BOULDER CO
800 AM MDT SAT JUL 22 2017

NOTE: "FAIR" INDICATES FEW OR NO CLOUDS BELOW 12000 FEET WITH NO
SIGNIFICANT WEATHER AND/OR OBSTRUCTIONS TO VISIBILITY.

COZ001>005-013-030-031-221500-
...NORTHWEST COLORADO...

CITY           SKY/WX    TMP DP  RH WIND       PRES   REMARKS
CRAIG          FAIR      56  53  90 CALM      30.31R
HAYDEN         FAIR      57  46  67 E9        30.33S
MEEKER         FAIR      59  51  75 E3        30.33R
RABBIT EARS PA FAIR      52  43  71 N5        30.59R
STEAMBOAT SPGS FAIR      55  50  85 NW3       30.36R
WALDEN         FAIR      52  46  82 CALM      30.45R
$$

COZ006>008-011-221500-
...WEST CENTRAL VALLEYS...

CITY           SKY/WX    TMP DP  RH WIND       PRES   REMARKS
GRAND JUNCTION FAIR      69  62  78 CALM      30.20R
MONTROSE       FAIR      63  58  83 E6        30.29R
EAGLE          PTSUNNY   57  55  94 CALM      30.38R
RIFLE          FAIR      64  56  75 CALM      30.27R
DELTA          FAIR      69  59  69 CALM      30.25R HAZE
NUCLA          FAIR      64  52  63 E7        30.29R
$$

COZ017>023-064>068-221500-
...SOUTHWEST COLORADO...

CITY           SKY/WX    TMP DP  RH WIND       PRES   REMARKS
DURANGO        FAIR      60  54  80 CALM      30.28R
CORTEZ         FAIR      60  56  86 CALM      30.22R
PAGOSA SPRINGS FAIR      62  49  62 CALM      30.35R
TELLURIDE      FAIR      55  50  85 CALM      30.46S
WOLF CREEK PAS FAIR      50  37  62 CALM      30.70R
$$

COZ009-010-012-014-032>034-037-058>063-221500-
...CENTRAL COLORADO...

CITY           SKY/WX    TMP DP  RH WIND       PRES   REMARKS
ASPEN          FAIR      57  51  80 CALM      30.40R
BUENA VISTA    CLOUDY    59  48  68 NW7       30.39R
COPPER MTN     FAIR      54  39  58 CALM      30.69R
BERTHOUD PASS  FAIR      45  30  57 NE5       30.72R
COTTONWOOD PAS PTSUNNY   59  43  55 CALM      30.51R
GUNNISON       FAIR      58  52  80 CALM      30.39R
KREMMLING      FAIR      59  54  82 CALM      30.43R
LEADVILLE      FAIR      50  45  83 N3        30.49F
MONARCH PASS   CLOUDY    50  37  62 CALM      30.77R
SALIDA         FAIR      63  49  59 NW8       30.44R
SUNLIGHT       FAIR      46  41  81 NE5       30.62R
WILKERSON PASS CLOUDY    52  36  54 N6        30.64R
$$

COZ069>075-221500-
...SAN LUIS VALLEY/SANGRE DE CRISTO MOUNTAINS...

CITY           SKY/WX    TMP DP  RH WIND       PRES   REMARKS
ALAMOSA        FAIR      58  50  75 SW3       30.34R
DEL NORTE      FAIR      60  47  63 W13       30.38R
LA VETA PASS   NOT AVBL
SAGUACHE         N/A    N/A N/A N/A MISG        N/A
$$

COZ035-036-038>040-221500-
...NORTHERN COLORADO FRONT RANGE...

CITY           SKY/WX    TMP DP  RH WIND       PRES   REMARKS
DENVER INTL AP PTSUNNY   64  59  83 S8        30.21R
DMNS CITY PARK   N/A     69  56  63 SW3G9     30.21R
AURORA         PTSUNNY   65  59  80 SE3       30.23R
FRONT RANGE AP FAIR      68  59  73 S5        30.22R
ERIE MUNI ARPT FAIR      67  56  67 CALM      30.19R
BOULDER MUN AP FAIR      70  54  56 CALM      30.18R
CENTENNIAL     PTSUNNY   67  55  65 CALM      30.24R
BROOMFIELD     FAIR      64  57  77 CALM      30.22R
FORT COLLINS   FAIR      68  58  70 S10       30.17R
LONGMONT       FAIR      71  60  66 S5        30.19R
$$

COZ041-046-047-076>085-087-088-221500-
...PIKES PEAK/PALMER DIVIDE AND SOUTHERN FOOTHILLS...

CITY           SKY/WX    TMP DP  RH WIND       PRES   REMARKS
COLO. SPRINGS  PTSUNNY   67  57  70 CALM      30.26R
A. F. ACADEMY  PTSUNNY   64  53  68 NW3       30.27R
SCHRIEVER AFB  FAIR      64  56  76 NE8       30.26R
CHEYENNE MTN   PTSUNNY   62  53  72 N5        30.25R
ELLICOTT       FAIR     N/A N/A N/A E6        30.24R
FALCON           N/A     65  53  65 NE5       30.30S
FORT CARSON    CLOUDY    65  58  78 NW6       30.23R
LIMON          FAIR      65  60  84 NW3       30.21R
MONUMENT HILL  FAIR      61  52  72 S6        30.32R
CANON CITY     SUNNY     72  57  60 W10       30.19R
WALSENBURG     NOT AVBL
TRINIDAD       FAIR      66  51  58 W10       30.22R
$$

COZ042>045-048>051-090-091-221500-
...NORTHEAST COLORADO...

CITY           SKY/WX    TMP DP  RH WIND       PRES   REMARKS
GREELEY ARPT   FAIR      67  60  78 CALM      30.17
AKRON          PTSUNNY   66  61  84 W12       30.14R
BURLINGTON     FAIR      73  60  63 N16       30.13R
WRAY           NOT AVBL
YUMA           PTSUNNY   66  54  63 NE8       30.13R
STERLING       FAIR      68  63  83 W5        30.10R
HOLYOKE        FAIR      73  57  56 N5        30.09R
FORT MORGAN    FAIR      64  61  89 SW5       30.16R
$$

COZ086-089-092>099-221500-
...SOUTHEAST COLORADO...

CITY           SKY/WX    TMP DP  RH WIND       PRES   REMARKS
PUEBLO         FAIR      72  57  59 E8        30.15R
LA JUNTA       FAIR      71  57  61 W10       30.11R
LAMAR          FAIR      76  59  55 W9        30.07R
SPRINGFIELD      N/A     77  55  46 N9        30.10R
$$




USA.gov is the U.S. government's official web portal to all federal, state and local government web resources and services.